CHINASAT 16 (SJ-13)

Last updated on Sat Apr 13 2024 01:02:39 GMT+0100 (British Summer Time)

1 42662U 17018A 24103.64177794 -.00000362 00000+0 00000+0 0 9992 2 42662 0.0776 86.8031 0004277 203.8294 252.2238 1.00281891 25759
UTC large
Height (km)
Speed (km/s)
/
Latitude / Longitude
Inclination (degrees)
Orbital Period (minutes)
Azimuth
Elevation
Range (km)
Doppler Factor

Next 0 passes for location: London (51.5072 / 0.1276)

Sorry there are no passes over London.